Location: Lafig�re
(44.4503°N, 4.0357°E)
Time: 15:26:35
(UTC+00:00)

SL-08 RB Rocket - Pass Details

Date: 24 September 2020
Orbit: 646 x 684 km, 97.8° (Epoch: 26 October)

Event Time Altitude Azimuth Distance (km) Brightness Sun altitude
Exits shadow 19:27:48 17° 176° (S) 1,681 5.5 -20.3°
Maximum altitude 19:31:20 70° 258° (WSW) 708 3.9 -20.9°
Drops below altitude 10° 19:35:52 10° 343° (NNW) 2,083 6.7 -21.6°
Sets 19:38:06 0° 345° (NNW) 2,994 7.6 -22.0°
